User: anonymous
Location: Rancho Del Sol Observatory
(38.7214°N, 120.6350°W)
Time: 18:55:43
(UTC-07:00)
Language:

Cosmos 2221 Rocket - Orbit

View from above orbital plane
View from above orbital plane
View from above satellite
View from above satellite

Ground track
Ground track

The orbit data is extracted from the following two-line orbital elements,

1 22237U 92080B   14233.46322861  .00000182  00000-0  22097-4 0  4091
2 22237 082.5155 356.3195 0018919 338.7809 087.7234 14.77884404171177
Epoch (UTC): 21 August 2014 11:07:02
Eccentricity: 0.0018919
inclination: 82.5155°
perigee height: 623 km
apogee height: 649 km
right ascension of ascending node: 356.3195°
argument of perigee: 338.7809°
revolutions per day: 14.77884404
mean anomaly at epoch: 87.7234°
orbit number at epoch: 17117

The dashed part of the orbit path shows where the satellite is in the earth's shadow,  

DLR